Wind_Speed
6 6 5 5 5 4 4 4 4 4 3 2 2 3 4 5 6 7 7 9 10 10 10 9 11 13 15 17 16 16 16 17 17 15 12 11 13 12 10 7 3 3 6 8 10 11 13 15 16 16 17 18 19 19 19 19 22 23 17 15 16 16 16 16 13 16 17 19 18 18 18 17 17 12 9 9 7 9 11 10 9 8 8 8 9 9 9 10
7 6 6 6 6 5 5 5 5 4 4 3 3 3 4 4 6 7 7 8 10 11 11 10 10 12 15 17 17 17 17 18 17 15 13 14 15 13 10 6 2 2 5 7 9 10 12 14 15 15 16 18 19 19 19 19 22 22 14 14 16 14 16 17 14 15 16 18 19 19 19 20 18 11 9 8 8 10 10 9 8 7 8 8 9 9 8 8
7 7 7 7 6 6 6 6 6 5 5 5 4 4 4 5 5 6 7 8 9 11 12 12 11 12 14 17 18 17 18 18 17 16 15 16 15 13 9 6 3 1 4 6 7 9 11 12 14 14 15 18 18 18 20 20 20 20 15 14 14 13 15 16 15 14 14 16 17 18 16 16 13 9 9 9 11 11 9 8 8 7 7 8 9 9 9 8
8 8 8 7 7 7 7 7 7 6 6 6 5 5 5 5 6 6 7 8 9 11 12 13 12 12 13 16 19 19 19 18 17 17 17 17 16 13 9 7 4 2 3 5 6 8 9 11 13 13 14 17 17 17 18 20 17 16 15 12 13 12 11 14 15 14 13 13 13 13 12 11 10 10 10 12 12 11 9 10 10 11 10 8 8 9 9 8
8 8 8 8 8 7 7 7 7 7 7 7 6 6 6 6 6 6 7 8 10 10 12 13 14 13 13 15 18 20 19 16 19 20 19 19 17 13 10 8 5 3 4 4 4 6 8 10 12 12 14 14 15 15 14 20 19 14 13 12 13 11 9 12 13 13 12 12 11 11 11 10 10 11 12 12 10 9 10 11 12 14 14 10 7 8 7 7
9 9 9 9 9 8 8 7 7 8 8 8 7 7 6 7 7 7 7 8 10 11 12 13 14 15 14 15 17 21 21 16 21 24 21 20 17 14 12 9 6 4 5 3 2 4 6 9 11 12 14 11 12 12 10 18 21 12 10 12 14 11 9 11 12 12 11 11 11 10 10 10 9 10 10 10 9 11 12 13 13 15 15 12 8 7 6 5
10 10 10 9 9 9 9 8 8 8 8 8 8 8 7 7 7 7 8 8 10 10 12 13 15 15 15 15 16 20 23 20 23 26 23 21 17 15 13 10 7 6 6 3 1 2 4 7 10 12 12 9 11 12 10 18 22 15 9 11 13 13 11 10 10 10 11 10 9 8 7 7 7 7 8 8 10 13 13 13 14 14 14 13 10 8 6 5
10 10 10 10 10 10 10 9 9 9 9 8 8 8 8 8 8 8 8 9 10 10 11 13 14 16 16 16 16 18 23 22 23 26 25 21 18 16 14 11 9 8 7 4 2 1 3 5 8 10 9 8 11 12 12 15 18 15 9 10 13 12 11 11 10 9 10 10 8 7 6 5 5 5 5 6 9 12 13 13 14 12 11 10 10 9 7 6
10 10 10 10 10 10 10 10 10 9 9 9 8 8 9 9 9 9 9 9 10 11 11 13 14 16 17 17 17 16 20 23 23 26 26 22 19 17 14 11 10 10 8 6 3 2 2 3 6 8 7 8 11 12 13 13 13 13 10 10 13 12 11 11 10 10 8 9 8 6 5 4 4 4 2 3 6 9 11 11 10 9 7 7 7 9 8 6
10 10 10 10 10 10 9 9 9 9 9 9 8 8 9 10 10 10 9 9 10 11 12 13 14 16 17 18 18 16 19 22 23 26 26 23 20 17 15 12 12 12 10 8 5 4 2 2 4 7 8 9 12 12 12 13 13 13 11 11 12 12 12 11 10 10 8 9 8 7 6 4 4 5 3 2 3 6 9 8 7 6 4 3 4 6 8 7
9 9 9 10 10 10 10 9 8 8 8 8 8 9 9 10 10 10 10 10 11 12 12 13 14 16 17 18 19 18 18 21 23 26 26 24 21 18 16 15 15 15 12 10 7 6 3 1 3 6 8 8 11 11 11 15 13 12 12 13 15 14 13 14 11 9 9 8 9 10 9 7 5 6 5 5 4 4 5 5 4 4 3 2 2 4 6 7
9 9 9 9 10 10 10 9 8 7 7 8 9 9 9 10 10 10 10 11 11 12 12 13 14 15 17 18 20 20 19 21 22 25 27 24 22 20 18 17 17 17 14 11 8 6 4 1 3 5 6 7 10 8 9 13 12 13 13 11 15 16 14 16 12 9 9 7 9 10 10 9 7 7 6 5 6 5 5 4 4 3 3 3 2 3 5 7
9 9 9 9 10 10 10 9 7 6 7 8 9 9 9 9 10 10 10 11 12 12 13 14 14 15 16 17 20 21 20 20 21 24 27 25 23 21 19 18 18 18 15 12 9 7 5 3 3 4 6 8 9 7 8 12 11 12 12 8 10 10 9 15 11 8 8 6 8 9 8 8 7 8 8 6 5 5 5 5 5 4 4 4 4 5 6 7
10 10 9 10 11 10 10 9 7 6 7 8 9 9 8 8 9 9 10 11 11 12 13 14 14 15 15 16 19 21 21 20 21 23 26 27 24 23 21 20 20 19 17 13 10 8 7 5 4 5 7 7 8 9 9 10 9 8 9 6 6 4 6 12 10 7 7 6 7 8 7 7 5 6 8 7 6 4 3 3 3 3 3 4 5 6 8 9
12 12 11 10 11 12 11 10 8 7 8 8 8 8 8 8 8 9 9 10 11 12 13 14 15 15 14 15 18 20 21 20 20 22 26 28 27 25 23 22 21 20 18 15 12 10 8 7 6 6 8 7 7 9 8 6 5 7 8 6 6 6 6 10 9 7 6 6 7 6 5 5 5 5 7 7 6 5 4 3 2 2 2 3 3 4 7 9
13 14 13 11 11 12 12 11 8 7 8 8 8 8 8 7 8 8 8 9 11 12 13 14 15 15 14 14 17 19 21 22 21 22 26 29 29 27 25 24 23 21 19 16 14 11 10 9 8 8 7 6 6 8 6 4 2 6 8 7 7 8 5 4 7 6 6 6 8 6 4 3 4 5 6 5 5 4 3 2 1 1 2 3 3 3 5 7
13 15 15 13 12 13 13 11 8 7 8 8 8 7 7 7 8 8 8 8 10 13 15 15 16 16 14 14 16 19 22 23 22 22 25 30 30 28 27 26 24 22 21 18 15 13 12 10 9 7 6 5 5 7 6 2 4 6 9 8 8 8 5 3 4 4 6 6 7 6 4 1 1 4 4 4 3 3 1 0 1 2 3 2 3 3 3 5
14 16 17 15 13 13 14 12 8 7 8 8 8 7 7 7 7 8 8 9 11 13 13 15 16 13 11 14 17 20 23 24 23 23 25 30 31 30 28 27 26 23 21 18 16 15 13 11 9 6 6 6 4 5 6 6 7 10 11 10 8 6 5 4 1 1 4 6 6 6 5 2 1 2 3 3 3 2 2 2 2 3 3 3 2 2 3 4
16 16 17 17 14 13 14 12 8 7 7 8 8 7 7 7 7 8 9 9 11 12 12 14 17 14 11 15 19 20 23 24 23 23 24 28 31 31 30 28 27 24 21 18 16 16 13 10 9 7 6 4 3 5 6 6 8 11 11 10 8 6 6 4 1 3 4 5 5 5 4 2 1 1 2 3 3 3 3 2 3 4 4 3 3 2 2 4
17 17 17 17 15 13 13 12 7 6 7 8 7 6 6 6 6 8 9 9 11 14 15 15 18 19 15 16 19 20 22 23 22 22 23 26 30 31 30 29 26 25 22 16 14 17 14 11 10 8 5 3 4 6 6 7 8 11 11 8 5 5 6 4 2 3 3 4 3 4 3 2 2 1 2 3 4 3 4 3 3 4 4 4 4 3 4 5
16 16 16 17 16 14 13 12 7 5 6 7 7 6 6 6 6 7 8 8 11 14 16 16 17 19 17 16 19 20 21 23 22 23 22 24 28 29 29 29 26 23 22 17 14 17 15 11 11 9 7 6 6 7 7 7 8 10 9 4 3 5 6 4 2 3 3 4 2 4 3 3 5 3 2 2 4 4 4 5 4 3 4 5 5 5 5 6
16 15 14 16 17 14 13 11 6 4 6 6 6 5 6 6 6 7 7 8 10 12 15 16 15 17 18 17 18 20 22 24 24 23 22 23 25 24 24 28 26 19 20 22 17 14 15 13 10 11 10 8 7 7 7 7 8 7 5 2 4 6 4 5 4 1 2 2 2 3 1 2 5 5 4 3 4 5 6 6 5 3 3 4 5 6 6 6
15 13 12 14 16 15 13 11 6 4 5 6 5 5 5 6 6 6 6 7 8 10 13 15 14 16 17 16 17 19 20 22 22 23 24 21 21 22 23 27 25 19 19 23 20 14 13 13 12 14 11 6 6 8 7 7 6 3 3 2 5 7 5 4 3 1 2 1 1 2 3 3 4 5 4 5 6 6 7 7 6 4 2 3 4 5 5 6
14 12 11 13 15 15 14 11 7 4 5 5 5 5 5 5 5 5 6 6 6 8 11 14 14 15 16 16 16 16 18 21 20 21 24 21 19 22 23 23 22 20 20 19 20 17 11 11 14 14 11 7 6 7 6 7 4 2 2 3 5 7 8 6 4 2 2 1 1 3 2 2 1 4 4 5 6 6 7 7 6 5 3 3 3 4 5 6
13 11 11 13 14 14 13 10 7 6 5 4 4 4 4 5 5 5 5 5 4 6 10 12 13 14 14 15 15 16 18 21 21 21 23 21 18 19 20 23 23 19 20 21 20 17 11 13 14 8 7 8 6 6 5 5 4 3 2 3 5 6 6 7 7 3 1 1 2 6 3 6 6 5 2 2 4 4 5 5 5 6 4 3 4 4 5 6
13 11 12 12 13 13 13 9 6 6 5 4 3 3 3 4 5 4 4 5 5 6 9 12 12 12 14 14 14 16 15 16 21 22 22 21 19 18 17 22 22 17 20 23 20 15 13 17 15 7 4 5 6 7 6 5 5 3 3 3 5 5 4 5 6 5 3 3 4 5 5 5 9 6 4 2 3 2 3 3 4 5 4 4 5 6 7 7
13 11 12 12 12 12 11 8 6 6 5 3 2 2 2 3 4 4 5 6 6 7 9 12 13 13 15 15 15 14 10 13 19 19 20 21 20 19 15 15 20 20 21 22 17 15 17 18 18 12 6 7 7 6 6 6 5 2 2 2 4 4 3 4 5 6 5 5 3 4 5 1 7 7 6 5 5 4 3 3 3 5 5 5 7 8 8 8
12 11 11 12 12 11 9 7 6 5 3 2 1 2 3 3 3 6 5 3 5 6 9 13 14 14 16 16 18 14 8 10 12 15 20 19 18 18 13 11 15 17 22 24 16 14 17 16 16 14 10 10 8 5 6 7 4 2 2 1 3 3 4 5 5 6 5 5 1 5 4 3 7 7 5 7 6 5 4 4 4 5 7 7 8 8 8 9
12 11 11 11 11 10 7 5 4 3 2 1 2 3 4 4 5 6 4 2 6 6 8 12 13 16 16 17 19 15 9 10 9 12 17 16 16 18 14 11 12 12 21 26 16 10 14 16 15 16 13 9 7 7 8 6 2 2 1 2 3 4 5 5 5 6 6 4 2 6 6 3 6 7 5 6 5 5 5 6 7 4 6 8 8 8 8 8
11 11 10 9 10 8 6 4 3 2 1 1 3 4 5 5 4 4 4 3 7 5 9 13 13 16 17 16 17 13 9 10 9 11 14 13 14 16 15 14 13 11 15 22 19 9 10 15 16 17 15 10 7 9 8 6 4 2 1 1 3 3 3 5 4 5 5 1 4 6 3 3 2 6 5 5 4 6 5 6 9 6 4 6 7 7 7 7
9 10 9 8 8 7 5 3 3 2 1 3 5 6 5 5 3 4 3 6 6 5 11 14 13 17 17 14 15 12 9 9 9 11 13 14 13 13 14 14 13 11 10 16 19 13 10 12 12 15 16 12 10 9 7 6 5 2 1 3 6 4 3 4 3 4 4 2 5 5 2 2 3 7 4 4 5 7 5 6 8 8 5 4 5 6 7 6
8 9 8 7 7 5 3 2 2 1 2 4 7 7 5 3 3 2 3 6 5 6 11 13 14 17 16 13 13 12 10 9 10 12 13 15 14 13 14 13 13 14 13 15 18 16 15 13 11 13 15 14 12 8 7 6 5 4 4 6 7 5 3 4 3 3 2 2 5 4 2 1 5 6 2 3 5 7 7 7 8 8 6 4 4 4 4 5
7 8 7 6 5 4 3 2 1 1 3 5 7 7 3 4 3 4 5 4 5 8 10 12 14 16 16 14 12 12 11 8 11 13 12 14 14 14 14 13 14 13 12 16 18 16 17 15 13 13 13 15 14 10 9 7 7 7 6 7 6 4 3 3 2 2 1 3 4 2 1 1 5 3 2 3 5 7 8 8 8 8 6 5 4 3 3 2
7 7 6 5 4 3 3 2 1 2 3 5 6 6 3 5 3 6 4 3 7 11 10 11 14 14 15 14 11 13 12 7 10 12 13 15 14 14 14 15 18 12 7 14 17 15 16 15 16 16 13 15 16 11 7 3 4 5 4 6 6 4 4 2 1 1 0 3 3 2 1 3 4 1 3 4 5 6 8 9 9 9 7 6 5 4 3 2
6 6 6 4 4 3 2 2 2 3 4 5 6 3 5 3 3 5 3 5 9 9 8 11 12 14 16 13 10 14 13 8 11 13 12 15 14 14 14 14 19 16 8 12 14 13 14 12 16 19 13 12 14 11 7 5 5 4 4 7 6 2 3 4 2 3 4 2 2 2 1 4 5 3 2 2 4 6 7 8 9 9 8 7 6 5 4 3
6 5 5 4 3 2 2 2 3 4 5 6 5 4 5 2 4 3 4 8 8 8 9 11 11 14 17 13 10 15 12 7 11 13 12 14 12 14 14 11 17 18 11 10 11 13 13 9 14 20 14 11 12 10 9 8 5 3 6 8 4 1 2 5 2 1 5 4 2 1 1 4 3 3 3 1 3 4 6 8 9 9 8 7 7 6 5 5
6 5 5 4 3 2 2 2 4 6 7 7 4 4 2 3 4 5 9 10 9 11 12 11 12 14 14 13 12 15 13 8 11 13 12 13 11 13 15 11 16 19 12 8 8 13 14 8 12 17 14 12 11 8 8 9 6 5 5 4 5 5 5 7 4 3 6 4 2 2 0 2 3 3 2 1 2 3 5 8 8 8 8 7 7 6 5 5
7 6 5 4 4 3 2 3 5 7 8 6 3 3 2 3 4 7 12 12 11 15 12 8 12 12 11 13 13 15 14 10 12 12 11 12 10 12 15 13 15 18 14 8 6 11 13 8 11 14 12 12 11 8 9 9 8 8 4 1 5 8 7 7 6 4 4 3 2 3 1 2 3 5 5 3 0 1 6 8 7 8 7 7 7 6 5 5
7 6 4 4 4 3 3 4 6 8 7 4 3 3 3 3 4 6 10 11 13 16 11 6 10 12 10 11 11 14 14 10 12 12 11 13 9 8 15 15 13 16 15 9 5 8 11 7 10 14 11 10 12 12 11 9 9 9 5 4 6 6 4 5 6 5 4 3 1 2 2 2 3 4 6 7 4 3 7 9 7 7 7 7 7 6 4 4
6 6 5 5 5 3 4 5 7 9 7 5 4 4 4 5 6 7 9 11 13 14 8 5 9 11 10 9 9 13 13 9 11 11 10 12 8 7 15 17 13 15 15 11 8 8 8 6 7 13 13 11 12 14 12 8 8 10 9 8 7 6 5 5 5 6 6 3 1 1 1 4 3 2 6 7 6 5 8 8 7 6 7 8 7 4 3 3
6 5 5 6 5 3 4 6 7 9 8 6 5 5 6 7 9 9 10 12 13 12 9 7 9 10 10 10 9 11 12 9 11 11 9 11 10 8 16 19 16 16 15 11 10 10 8 5 4 10 14 12 10 12 13 10 8 9 9 9 8 8 8 8 6 5 5 4 2 3 1 5 4 6 4 5 5 5 8 7 7 6 6 7 6 4 5 5
5 5 6 6 5 4 4 6 7 10 10 7 6 7 8 9 11 11 11 11 11 11 10 9 11 12 11 11 9 10 12 10 10 11 9 11 10 6 13 20 18 17 15 10 10 11 9 7 4 5 7 7 7 12 14 12 10 8 7 6 7 8 10 10 6 4 6 5 2 3 2 4 3 6 4 2 3 6 7 6 6 6 6 6 6 6 7 7
5 6 6 6 5 4 4 4 5 8 10 9 8 8 9 10 11 11 11 11 9 8 8 7 10 12 11 12 11 11 12 10 10 11 8 9 10 6 12 21 19 16 14 10 10 13 11 9 8 5 5 5 7 11 12 10 8 7 7 7 8 9 9 8 3 2 6 5 4 5 3 3 4 7 5 2 3 6 7 5 4 4 5 6 6 7 7 6
5 6 6 7 6 5 5 6 6 8 11 11 9 8 9 9 11 12 11 10 9 8 7 6 7 8 10 13 14 13 13 10 9 10 8 8 9 8 12 21 20 16 14 10 10 12 11 10 11 9 9 9 8 9 9 8 8 7 7 9 11 10 9 7 3 3 5 4 4 5 4 4 7 9 6 3 2 6 7 5 4 4 5 5 6 6 6 6
5 6 6 7 7 6 7 9 10 11 13 12 10 10 10 9 10 11 10 9 9 7 5 4 3 3 7 13 15 15 15 11 8 9 9 8 9 8 13 20 20 16 14 12 11 11 8 9 10 8 7 8 7 7 8 8 8 7 7 10 12 11 10 8 6 7 6 5 4 3 3 4 6 10 7 4 4 7 8 6 5 5 6 6 6 6 6 6
5 4 5 7 7 6 7 9 11 12 13 12 11 11 11 10 10 10 10 9 8 6 4 2 2 3 5 11 12 13 15 12 9 9 9 8 9 10 15 20 19 17 16 13 11 10 7 8 9 4 1 3 4 6 8 8 6 7 8 10 12 13 12 8 6 6 5 6 5 4 3 4 4 8 9 7 5 9 8 7 7 6 6 5 5 5 5 5
5 5 6 7 7 7 7 8 11 13 14 14 13 12 12 11 10 10 9 9 8 7 5 4 3 4 6 10 10 11 14 12 9 10 11 10 11 13 15 18 18 18 16 13 10 10 8 8 8 4 1 5 6 7 10 9 7 7 7 8 11 13 12 8 7 3 2 4 4 4 6 5 3 7 11 11 9 11 9 8 9 8 6 4 3 3 4 4
7 6 7 8 9 8 8 9 11 13 15 15 14 13 12 12 10 10 9 8 7 7 5 3 3 4 6 10 10 11 12 10 9 12 12 11 13 15 16 16 16 16 16 13 11 10 8 7 8 5 5 9 10 10 10 9 8 8 7 9 11 11 10 8 7 5 5 4 3 4 6 5 5 11 16 14 12 13 11 9 11 8 6 4 3 2 3 3
8 7 7 9 10 9 9 10 11 13 15 15 14 13 13 12 11 10 10 8 7 7 6 5 5 5 6 8 10 12 13 11 10 13 14 13 14 15 15 15 16 16 16 12 11 12 9 8 9 7 8 11 12 10 10 8 8 7 7 9 10 9 10 10 9 9 9 7 5 6 4 2 5 11 16 16 13 13 11 11 11 8 6 5 3 1 2 3
9 8 8 9 11 10 9 10 12 13 14 14 13 12 13 13 12 11 11 10 8 8 7 7 8 7 6 6 8 13 15 14 13 16 18 18 16 16 15 14 15 17 15 11 11 13 10 9 11 11 10 11 12 11 9 8 8 8 7 8 7 6 7 9 9 9 8 7 9 8 6 5 5 7 13 16 15 14 12 13 12 9 6 4 2 0 2 3
11 10 8 9 11 11 10 11 13 13 13 14 14 13 14 14 13 13 12 10 10 9 8 8 10 10 7 4 7 11 13 14 16 20 22 20 19 18 16 15 16 16 14 12 12 12 10 11 15 14 10 10 11 11 9 9 9 8 7 7 6 5 5 5 6 7 6 6 6 5 3 5 6 5 10 15 16 15 13 14 13 10 7 4 2 1 3 4
12 11 10 10 12 13 12 12 13 12 11 14 16 15 15 15 14 14 13 12 11 10 9 9 10 11 7 7 10 11 12 14 17 21 22 20 20 19 16 15 16 15 13 13 12 10 10 13 16 13 10 11 11 9 8 8 8 6 5 6 7 6 5 4 3 4 6 5 4 3 5 7 7 6 10 14 18 17 15 15 14 11 8 4 2 2 4 6
Wind_Direction
323 321 318 313 307 302 294 289 288 286 285 270 243 219 214 212 211 212 212 211 212 213 209 199 195 198 195 191 189 181 177 177 179 176 175 186 182 173 171 166 136 49 38 44 48 46 40 39 38 36 37 35 35 33 34 35 34 42 40 33 39 35 43 50 66 95 112 125 125 128 132 135 141 141 141 141 134 138 139 141 149 157 157 159 161 167 187 187
323 320 315 312 307 302 296 288 282 276 274 264 253 232 219 215 212 212 210 209 210 211 214 206 194 196 195 193 191 185 179 179 180 176 182 190 182 177 178 179 182 47 45 53 53 43 36 37 39 38 38 36 33 32 34 34 34 41 42 36 41 44 55 64 74 88 106 123 129 131 135 139 145 151 150 148 145 143 136 132 136 140 145 150 153 157 174 180
323 319 314 310 305 301 296 291 285 276 270 261 253 240 228 218 213 213 210 208 209 209 212 210 200 193 195 194 191 189 181 178 181 182 191 193 184 182 181 194 210 78 62 66 54 36 31 37 40 39 38 35 33 36 37 32 32 41 45 37 41 51 60 70 77 84 99 116 129 134 136 140 147 153 151 152 144 136 125 115 117 118 128 139 141 146 159 167
324 320 316 312 305 301 294 290 286 280 273 263 254 243 237 224 214 212 211 209 208 208 208 210 208 195 193 194 192 192 183 180 187 188 195 196 188 187 187 203 207 128 94 79 51 33 33 38 41 39 37 32 30 37 36 28 30 41 42 38 41 50 63 75 81 83 89 100 116 128 134 136 142 143 143 144 138 135 132 122 117 116 118 121 129 140 153 163
325 322 318 314 309 303 295 290 284 280 276 268 260 247 241 235 222 211 210 211 209 209 206 208 210 201 194 193 193 192 184 186 195 191 196 197 191 193 197 204 198 155 126 94 53 37 34 39 44 40 35 29 23 27 23 22 31 38 32 36 42 47 67 80 87 89 89 93 97 108 118 124 131 132 137 143 142 144 139 127 122 123 123 120 125 139 150 159
327 325 321 317 312 307 300 293 285 280 276 271 265 254 243 238 232 217 209 211 211 211 207 205 210 206 198 192 193 192 185 188 195 193 197 197 195 198 201 204 194 168 147 120 58 36 26 39 45 38 35 24 16 22 18 23 34 40 24 29 40 44 56 70 86 93 96 102 102 105 107 113 124 129 137 146 144 140 134 129 130 130 129 129 130 136 147 157
330 327 324 320 316 311 306 300 292 284 278 273 267 259 249 239 235 226 211 209 212 211 208 205 207 209 202 194 193 192 191 192 192 193 197 198 198 200 199 201 194 176 165 157 100 31 15 42 46 39 35 15 10 20 19 22 28 33 23 23 36 40 40 50 71 84 94 105 114 118 114 110 115 126 139 145 143 139 138 139 136 127 122 129 135 139 152 160
330 328 325 322 319 315 310 306 300 293 285 278 270 262 254 244 235 230 215 208 210 211 211 206 205 209 205 198 194 193 197 197 193 194 198 198 199 199 197 199 192 181 179 181 169 341 2 45 45 38 30 7 11 17 21 21 14 15 19 19 31 38 33 33 47 63 80 93 110 122 126 124 110 117 138 144 144 145 149 148 143 130 114 120 139 148 156 159
330 328 325 322 320 315 312 309 304 300 294 287 279 267 256 247 237 231 221 210 208 209 210 207 206 207 207 201 196 195 199 199 196 196 197 197 199 198 194 196 193 186 189 194 185 247 320 43 40 38 27 11 15 14 24 26 2 7 25 26 29 34 29 27 30 38 54 71 93 110 123 139 117 103 122 137 131 143 162 164 154 146 124 113 136 153 157 156
332 328 324 322 318 315 312 309 306 302 300 297 288 272 258 249 238 231 224 213 208 208 208 208 206 206 208 203 197 197 199 199 198 198 197 195 197 197 194 195 194 190 197 201 198 234 257 38 32 31 20 15 17 7 14 17 4 15 32 31 31 29 25 23 21 24 30 44 66 85 97 118 119 108 126 175 126 135 165 177 169 163 154 123 133 159 165 163
335 330 325 319 315 315 313 312 309 305 305 298 285 270 259 252 243 231 224 217 209 207 206 207 207 206 208 205 200 199 199 198 198 198 197 195 195 197 196 194 193 193 199 201 204 231 240 37 23 26 10 5 12 360 358 6 10 24 30 29 26 27 25 19 14 15 20 29 49 64 66 68 91 109 134 177 167 143 157 169 170 164 160 145 148 173 184 185
340 334 326 319 313 313 314 316 312 309 303 289 278 267 259 256 250 237 224 218 211 207 205 206 208 208 207 206 204 202 200 199 198 199 198 196 195 198 199 195 193 194 200 205 209 230 243 287 357 16 357 353 5 355 343 356 12 23 25 21 11 15 18 11 9 10 18 31 43 54 56 49 58 79 104 150 166 168 168 172 188 196 188 188 193 189 203 213
342 336 331 323 316 313 314 316 314 309 299 284 275 267 261 257 252 243 227 217 213 206 203 206 207 208 208 207 206 203 201 200 197 199 199 198 198 200 202 197 195 196 201 208 215 231 245 267 321 341 344 353 355 346 339 354 16 19 17 22 1 2 2 1 8 12 20 42 45 53 58 44 44 64 81 101 132 159 173 185 203 210 204 199 200 199 211 225
343 340 335 329 323 317 312 312 314 311 299 286 276 268 262 254 248 243 231 218 212 206 203 204 206 208 207 208 209 204 202 200 198 198 198 199 201 202 203 200 198 199 203 209 217 228 243 262 296 316 333 345 340 343 347 353 13 6 3 26 13 3 2 1 13 25 25 51 57 60 59 37 34 65 77 80 93 114 130 165 188 188 186 186 189 194 204 212
344 341 339 336 331 323 314 310 314 312 301 294 283 270 262 253 245 239 233 221 210 205 202 202 205 207 206 209 210 204 202 201 198 197 197 199 203 204 204 203 201 202 205 212 220 230 245 261 288 301 315 333 338 346 339 319 342 356 359 22 24 23 20 4 12 40 45 56 67 72 64 37 29 59 68 68 83 95 96 112 134 150 158 164 181 188 195 203
346 341 342 343 338 331 322 315 315 310 303 299 290 272 261 253 244 237 231 221 209 202 200 201 204 204 204 209 209 204 203 202 198 196 196 198 203 205 203 204 205 206 209 217 224 235 249 260 280 292 301 320 331 329 311 272 321 2 3 11 21 21 27 5 6 46 74 73 77 88 89 48 18 41 50 50 68 84 96 112 138 191 197 178 183 186 187 197
350 344 342 345 345 337 330 325 317 306 302 303 296 274 260 252 244 238 228 217 207 202 200 200 202 202 202 203 204 205 204 202 199 194 195 198 203 205 204 206 208 209 213 220 228 236 249 257 270 294 300 295 304 309 310 7 24 0 358 5 16 15 30 46 360 38 83 87 85 90 111 150 352 34 40 34 40 47 56 42 262 257 261 232 199 187 179 182
352 345 340 343 348 341 335 332 318 305 303 305 300 280 262 251 243 238 228 217 207 202 202 203 199 196 204 202 200 205 204 203 200 195 195 197 201 206 207 207 209 212 215 221 229 235 245 255 261 279 280 271 287 312 336 9 357 342 346 353 3 16 40 55 2 55 98 98 98 93 97 140 230 27 33 27 10 348 337 327 307 286 285 279 245 209 186 181
348 345 338 338 345 344 338 334 321 305 303 306 303 286 265 254 246 240 233 223 210 202 204 207 196 186 197 203 202 204 204 204 201 198 198 196 200 206 208 209 210 212 215 219 230 233 235 246 249 250 248 246 292 315 335 338 331 334 335 338 350 21 48 45 111 164 131 109 115 122 108 113 163 34 21 17 359 329 316 310 292 278 274 279 265 237 221 212
341 343 336 333 339 345 340 336 325 303 304 308 303 287 267 257 249 245 239 229 217 209 206 204 197 192 194 199 201 203 203 202 200 200 202 198 198 205 209 210 210 213 214 214 227 230 226 233 235 233 239 255 288 295 308 317 325 332 329 334 356 44 55 50 115 154 147 125 150 180 167 200 222 300 6 355 335 319 307 285 260 262 256 257 258 244 243 242
336 341 335 328 334 343 340 336 325 301 305 307 300 286 269 256 240 242 241 232 225 218 213 208 201 197 196 197 199 201 200 198 199 202 204 200 198 204 210 209 210 215 213 207 214 224 223 230 234 230 241 250 262 283 297 314 325 328 329 342 39 63 59 45 90 170 168 128 195 211 184 233 244 265 305 319 322 324 318 301 281 270 256 252 250 243 246 252
334 341 333 324 329 339 339 334 322 298 301 303 295 280 269 259 244 246 245 236 229 223 218 212 203 200 199 197 198 200 198 195 199 202 203 203 198 200 210 210 209 212 215 211 209 219 224 227 234 229 236 245 256 279 295 311 317 322 323 330 56 63 56 16 13 208 169 106 251 239 235 253 235 249 283 300 315 323 324 321 312 291 254 248 250 253 254 255
333 341 330 320 325 333 336 331 317 295 298 298 288 274 269 259 244 243 242 238 233 224 218 210 203 202 199 196 199 201 197 193 198 204 204 203 197 199 208 208 206 210 216 214 208 214 221 220 226 231 236 248 266 280 295 302 299 312 328 350 63 56 48 24 359 351 37 340 251 2 336 273 252 257 274 289 301 311 319 323 318 304 255 240 248 256 258 255
333 341 327 319 324 329 333 329 313 301 304 294 280 266 259 250 236 234 235 234 234 222 213 205 202 202 197 194 196 195 193 191 196 207 207 202 200 204 207 206 206 211 213 211 210 215 215 211 221 236 243 243 262 278 289 291 266 168 359 3 49 44 42 45 34 41 46 344 327 341 288 191 319 299 265 279 290 294 308 315 310 302 274 242 249 259 263 264
333 340 325 320 325 327 331 329 312 309 314 298 279 261 250 239 229 234 227 215 216 212 204 199 199 200 195 188 189 190 191 193 196 205 208 205 204 205 207 208 206 210 215 212 211 214 220 225 225 232 239 240 263 270 270 284 257 178 106 22 25 35 36 37 27 2 189 123 1 313 283 117 76 354 319 301 305 291 297 303 291 295 288 236 239 257 267 276
332 338 325 324 329 328 330 330 315 317 323 308 292 267 234 213 220 225 193 179 187 196 193 191 191 191 188 181 184 184 181 195 204 206 208 207 206 202 206 213 205 202 215 214 213 216 221 229 223 202 211 250 267 255 256 274 256 199 125 39 22 36 24 25 8 323 318 22 10 335 323 91 83 22 3 34 357 340 310 295 271 281 283 235 239 256 268 282
331 335 327 328 332 331 334 332 322 327 328 315 300 250 200 196 206 175 164 172 179 191 189 185 184 180 180 179 172 169 177 204 207 207 210 210 210 202 197 213 208 203 212 209 209 218 217 224 226 218 230 255 245 234 242 253 255 223 146 16 22 32 359 360 337 322 349 344 350 36 329 334 74 32 6 33 28 21 3 320 274 265 258 240 248 262 271 285
327 331 330 330 333 337 339 333 328 331 329 319 258 196 163 166 161 152 177 191 153 172 185 182 183 175 174 175 165 163 189 199 195 207 210 207 208 198 188 210 209 208 217 208 202 221 220 221 226 223 229 237 230 227 231 239 267 271 182 60 13 357 342 346 323 314 331 307 320 57 328 301 73 45 16 42 43 36 19 346 319 270 254 250 259 269 276 288
321 328 332 333 336 342 345 338 332 329 327 294 172 148 144 152 133 142 219 239 126 150 180 172 176 176 172 172 170 173 183 169 176 208 206 203 205 193 189 206 197 201 218 209 201 224 219 215 219 214 217 225 223 229 229 224 237 241 160 57 353 339 339 329 312 303 303 300 19 20 326 302 76 59 28 37 43 38 27 356 349 313 265 264 271 279 286 296
317 325 332 336 339 346 351 340 332 331 317 169 150 139 148 149 140 180 227 156 126 163 180 164 169 178 173 170 175 180 179 175 188 199 191 195 202 194 196 204 196 200 216 207 205 212 203 210 220 217 216 215 206 215 223 211 185 175 94 12 289 292 310 298 303 297 276 266 22 5 333 272 66 62 26 8 15 16 21 358 355 354 304 280 280 285 295 312
313 321 332 338 341 351 353 327 327 331 225 157 142 136 131 129 165 249 221 137 143 173 170 168 174 177 170 169 180 182 179 185 188 184 183 186 189 189 195 199 194 193 204 208 209 212 206 206 215 223 219 204 198 212 219 200 171 160 231 258 256 242 244 249 231 261 258 104 31 19 117 246 34 67 45 12 6 354 0 355 354 6 355 311 293 289 300 321
309 320 333 336 342 354 338 302 321 314 184 157 147 132 118 148 209 261 125 140 167 164 165 178 178 174 172 172 180 182 178 181 178 177 183 185 184 186 190 195 191 190 199 204 203 210 216 214 214 223 217 199 196 209 212 201 195 215 235 244 255 250 236 231 198 238 273 85 46 39 138 168 54 62 36 20 7 350 358 359 1 14 17 5 334 316 318 327
306 320 331 332 344 346 305 287 289 215 178 176 163 135 135 234 217 134 126 148 166 162 171 182 174 173 178 179 181 179 174 180 183 181 183 184 186 191 193 194 189 192 204 197 193 201 205 212 219 215 211 201 194 202 214 205 205 225 234 232 248 260 240 224 195 226 259 101 78 65 172 107 81 67 351 14 3 356 6 6 15 27 33 44 30 10 8 1
305 316 325 326 337 322 286 274 220 174 176 181 156 135 194 249 182 138 133 145 162 167 172 176 175 178 183 184 186 182 178 185 188 184 183 185 191 195 198 198 191 190 200 188 190 198 194 200 209 204 206 203 197 212 230 213 204 222 240 240 246 261 267 274 225 242 144 138 121 104 347 23 59 25 338 14 4 8 20 19 27 38 49 62 62 58 58 68
306 309 318 321 321 297 264 257 204 153 168 171 146 168 244 243 146 146 143 145 158 167 169 172 176 180 183 188 192 185 182 185 186 183 185 189 195 196 197 201 193 185 186 187 187 196 196 193 192 193 195 194 198 213 219 226 233 211 217 240 244 233 282 310 344 356 323 231 156 101 63 41 30 353 345 22 14 18 32 35 38 46 58 70 75 81 86 95
308 302 309 308 299 277 248 242 183 160 169 163 158 244 255 172 142 165 168 161 158 158 157 159 166 174 179 185 192 187 179 168 178 184 188 192 199 198 192 195 192 185 185 191 184 187 191 174 177 189 190 184 196 205 206 223 235 214 222 226 215 139 274 288 278 260 277 255 145 151 145 99 72 14 351 356 31 34 40 48 52 54 66 80 85 90 97 103
305 294 299 291 280 268 243 216 175 172 170 161 187 253 236 162 184 187 170 166 160 158 156 157 166 174 178 180 184 186 184 176 179 185 190 191 200 200 191 190 191 185 180 183 181 187 190 162 161 186 192 188 195 205 214 223 220 239 249 189 182 219 240 268 275 223 240 248 132 160 161 93 104 78 57 17 21 51 59 62 68 70 78 90 96 106 112 114
303 289 290 280 270 260 234 201 177 178 170 164 209 240 173 171 207 189 172 166 160 159 165 173 172 173 181 182 177 180 188 188 181 187 190 186 197 200 192 192 187 178 173 173 168 181 188 163 149 177 198 197 199 214 221 217 213 238 282 137 215 238 218 225 255 255 240 239 157 140 117 51 54 75 102 115 217 110 80 78 82 85 92 99 101 110 117 124
305 286 282 269 263 255 225 200 182 178 170 172 220 227 193 173 176 175 172 173 166 161 168 185 173 172 181 181 172 175 189 191 178 187 190 182 194 201 189 188 181 173 171 171 170 176 189 184 154 167 194 199 201 218 220 207 204 222 244 220 225 246 230 223 246 266 273 267 189 146 129 95 66 72 104 123 167 151 92 89 96 95 97 96 94 102 115 126
307 283 272 257 256 251 220 200 185 178 177 187 204 199 182 153 142 147 156 164 165 163 170 184 175 178 182 179 175 179 191 197 182 188 189 179 186 192 185 184 180 177 171 168 180 179 190 212 158 159 190 204 201 211 217 207 196 204 211 205 204 213 224 238 240 251 271 284 239 218 124 105 144 164 106 115 155 131 94 99 108 103 95 88 86 95 99 94
305 283 267 249 246 241 212 199 186 181 181 185 188 179 165 147 142 143 145 152 158 163 174 182 179 184 186 185 187 184 189 197 192 189 186 182 184 186 187 185 182 184 179 175 188 183 185 208 154 158 190 206 204 205 210 205 191 198 207 205 207 204 208 225 219 211 243 262 268 250 154 105 166 197 134 123 155 121 99 108 111 103 92 81 76 70 61 62
296 274 258 241 237 227 205 199 187 182 181 180 181 177 164 148 142 141 138 141 147 158 173 182 183 188 194 193 192 188 187 191 193 191 190 188 182 174 186 186 182 185 182 179 187 185 184 193 178 163 178 193 198 192 193 189 180 195 217 215 217 211 213 231 226 184 211 223 239 247 187 95 184 206 167 131 145 122 114 117 114 104 88 73 65 55 54 61
284 266 251 235 230 213 190 195 192 187 185 178 174 173 163 150 143 138 134 133 137 150 166 182 188 192 203 203 196 193 191 188 189 189 190 188 185 185 192 188 185 185 184 182 182 177 174 185 192 173 138 145 163 169 178 182 178 199 218 215 221 219 220 240 258 185 209 204 203 217 166 111 235 215 173 154 138 117 113 116 115 106 90 72 61 55 55 64
279 266 250 230 227 212 188 190 192 193 190 178 170 172 165 154 150 146 138 134 135 138 146 164 184 196 212 210 200 196 193 188 190 192 184 180 190 197 190 187 186 182 181 183 181 176 171 176 183 174 158 155 152 160 176 187 194 213 221 212 214 214 213 219 216 213 216 199 223 230 129 117 226 213 181 185 152 111 107 108 100 97 91 72 61 58 56 59
272 269 252 230 226 219 204 199 192 189 188 179 173 174 165 154 156 156 147 138 135 130 133 150 166 182 203 204 199 198 195 185 182 191 187 182 192 186 178 184 184 182 187 187 180 182 176 170 181 192 189 176 163 163 173 182 197 210 218 217 215 212 208 205 203 213 209 179 203 232 104 111 218 211 196 208 157 114 106 107 100 93 88 71 58 58 55 55
258 259 246 230 227 223 214 205 192 188 187 180 175 176 170 160 157 158 152 142 135 125 108 78 50 81 163 184 189 194 195 188 175 177 178 180 185 174 172 181 182 184 194 191 179 183 181 176 190 220 245 154 150 165 175 183 193 195 205 214 213 209 202 200 209 206 179 160 168 190 155 135 200 205 200 210 166 118 110 118 112 96 88 80 67 62 58 54
245 239 228 219 218 220 216 205 193 189 188 183 178 178 175 167 160 158 153 143 136 123 89 49 42 76 141 168 174 179 186 190 181 172 168 166 170 166 167 179 185 187 190 185 178 180 178 182 192 201 156 141 145 162 169 174 184 192 202 201 199 200 193 198 224 214 143 168 175 198 194 155 150 200 200 202 174 140 135 134 117 102 100 105 99 75 59 43
238 233 223 211 207 210 208 200 192 188 189 187 183 180 175 169 166 166 159 149 141 124 94 66 67 85 124 149 160 165 170 175 174 168 163 158 161 162 164 174 181 184 182 177 178 180 178 187 190 187 181 164 155 157 159 164 179 189 194 184 184 192 190 201 224 203 189 207 202 210 195 150 162 201 202 203 185 162 154 134 118 119 131 144 145 92 50 23
231 227 219 209 209 213 207 196 189 186 189 192 188 183 178 171 167 167 164 156 143 127 120 117 102 92 118 143 161 164 157 155 163 165 159 152 152 156 161 168 174 179 180 182 186 178 172 187 186 167 163 164 157 153 153 156 165 169 177 178 178 189 199 208 213 200 202 216 228 242 243 204 198 197 200 206 191 164 152 137 133 147 163 169 167 106 26 4
229 225 216 207 209 212 205 194 187 182 185 189 188 186 184 176 170 168 166 161 151 142 137 125 105 98 112 142 168 167 158 155 161 161 155 150 149 150 154 162 170 173 176 184 186 170 165 188 181 155 144 151 147 141 137 135 140 143 153 163 159 168 195 209 216 212 217 231 241 258 284 287 248 200 200 206 187 161 154 151 153 168 180 188 195 338 355 357
227 222 215 207 206 206 201 193 185 177 180 186 185 183 183 179 174 172 168 166 162 152 144 130 107 96 102 152 175 168 163 160 157 154 151 149 152 156 156 158 163 165 168 175 175 165 171 185 173 161 156 149 144 144 136 131 134 127 124 140 143 146 173 198 214 214 220 240 254 258 256 265 262 220 203 200 180 165 164 163 165 176 188 203 231 305 340 354
227 221 214 208 206 206 201 192 184 178 181 187 185 182 181 177 175 172 164 164 165 154 144 138 118 106 125 171 163 150 152 153 151 152 152 150 155 161 162 158 156 158 164 170 168 167 176 176 169 172 175 161 156 151 140 154 163 135 117 140 143 136 144 161 197 211 219 236 253 251 247 259 254 210 193 187 175 169 171 171 172 180 192 210 244 295 325 341
Height
3183 3183 3182 3182 3182 3182 3182 3182 3181 3181 3181 3181 3182 3182 3182 3182 3182 3182 3183 3183 3183 3183 3184 3185 3186 3186 3187 3189 3190 3191 3192 3192 3193 3194 3195 3195 3195 3196 3196 3197 3197 3197 3197 3197 3197 3197 3196 3196 3195 3194 3193 3193 3192 3191 3191 3190 3189 3186 3185 3187 3187 3186 3184 3183 3182 3181 3181 3181 3182 3183 3183 3184 3186 3187 3188 3188 3189 3189 3190 3191 3192 3193 3193 3194 3194 3195 3196 3197
3182 3182 3181 3181 3181 3181 3181 3181 3180 3180 3180 3180 3181 3181 3181 3181 3181 3182 3182 3182 3182 3182 3183 3184 3185 3186 3187 3188 3189 3190 3191 3192 3193 3194 3195 3195 3195 3196 3196 3197 3197 3197 3197 3197 3197 3197 3197 3196 3196 3195 3194 3194 3193 3193 3192 3191 3190 3187 3188 3190 3189 3188 3186 3185 3185 3184 3184 3184 3184 3184 3185 3186 3187 3188 3189 3189 3190 3190 3191 3192 3193 3194 3194 3195 3195 3196 3197 3198
3181 3181 3180 3180 3180 3180 3180 3180 3179 3179 3179 3180 3180 3180 3180 3180 3181 3181 3181 3181 3181 3182 3182 3183 3184 3185 3186 3187 3189 3190 3191 3192 3193 3194 3194 3194 3195 3196 3197 3197 3197 3197 3197 3198 3198 3198 3198 3197 3197 3196 3195 3195 3195 3194 3193 3192 3191 3190 3191 3192 3191 3189 3188 3187 3187 3187 3187 3187 3187 3187 3187 3188 3189 3189 3189 3190 3190 3191 3192 3193 3193 3194 3195 3196 3196 3197 3198 3199
3180 3180 3179 3179 3179 3179 3179 3178 3178 3178 3178 3178 3179 3179 3179 3179 3180 3180 3180 3181 3181 3181 3181 3182 3183 3184 3185 3187 3188 3189 3191 3192 3193 3193 3193 3194 3195 3196 3197 3197 3197 3198 3198 3198 3198 3199 3199 3198 3198 3197 3196 3196 3196 3195 3194 3194 3193 3192 3192 3193 3193 3191 3190 3189 3188 3188 3188 3189 3189 3189 3189 3189 3189 3190 3190 3190 3190 3191 3192 3193 3193 3194 3195 3197 3197 3198 3199 3200
3179 3179 3178 3178 3178 3178 3178 3177 3177 3177 3177 3177 3177 3178 3178 3178 3179 3179 3179 3179 3180 3180 3181 3181 3182 3183 3185 3186 3187 3189 3191 3193 3192 3192 3193 3193 3195 3196 3197 3197 3197 3198 3198 3198 3199 3199 3199 3199 3198 3198 3197 3198 3198 3197 3197 3196 3194 3194 3194 3194 3193 3192 3192 3190 3189 3189 3189 3190 3190 3190 3190 3190 3191 3191 3191 3191 3190 3190 3192 3193 3194 3194 3195 3197 3198 3199 3200 3200
3178 3178 3177 3177 3177 3177 3176 3176 3176 3176 3176 3176 3176 3176 3177 3177 3177 3178 3178 3179 3179 3179 3180 3180 3181 3182 3184 3185 3186 3188 3190 3191 3191 3191 3192 3193 3194 3196 3196 3197 3197 3198 3198 3199 3199 3199 3199 3199 3199 3199 3198 3200 3200 3199 3199 3197 3195 3196 3196 3194 3193 3193 3193 3192 3191 3190 3190 3190 3191 3192 3192 3192 3192 3192 3192 3192 3191 3191 3193 3193 3194 3195 3195 3196 3198 3199 3200 3201
3177 3177 3177 3176 3176 3175 3175 3175 3175 3175 3174 3174 3175 3175 3175 3176 3176 3176 3177 3178 3178 3178 3179 3179 3180 3181 3182 3184 3185 3187 3188 3189 3189 3190 3191 3193 3194 3195 3196 3197 3197 3198 3198 3199 3199 3200 3200 3200 3200 3199 3200 3201 3201 3199 3199 3197 3196 3196 3197 3195 3194 3194 3193 3193 3192 3191 3191 3191 3192 3192 3193 3193 3193 3193 3193 3193 3193 3193 3193 3194 3195 3195 3196 3196 3198 3199 3200 3201
3177 3176 3176 3175 3175 3174 3174 3174 3173 3173 3173 3173 3173 3173 3174 3174 3175 3175 3176 3177 3177 3177 3178 3178 3179 3180 3181 3183 3184 3186 3187 3188 3189 3190 3191 3192 3194 3195 3196 3197 3198 3198 3198 3199 3200 3200 3200 3200 3200 3200 3201 3202 3200 3200 3199 3198 3197 3197 3197 3196 3195 3194 3194 3193 3193 3193 3192 3192 3192 3193 3193 3193 3194 3194 3194 3194 3194 3194 3194 3195 3195 3196 3196 3197 3198 3199 3199 3200
3176 3175 3175 3174 3174 3174 3173 3173 3172 3172 3172 3172 3172 3172 3172 3172 3173 3174 3174 3175 3176 3176 3177 3177 3178 3178 3180 3181 3183 3185 3186 3187 3188 3189 3190 3191 3193 3194 3196 3197 3198 3198 3199 3199 3200 3200 3200 3201 3201 3201 3201 3201 3200 3200 3199 3199 3199 3198 3197 3196 3195 3195 3194 3194 3193 3193 3193 3193 3193 3193 3193 3194 3194 3194 3195 3195 3195 3196 3196 3196 3196 3197 3197 3198 3198 3199 3199 3200
3175 3175 3174 3173 3173 3173 3172 3172 3171 3171 3171 3170 3170 3170 3170 3171 3171 3172 3173 3174 3174 3175 3176 3176 3177 3178 3178 3180 3182 3183 3184 3185 3187 3188 3189 3191 3192 3194 3196 3197 3197 3198 3199 3199 3200 3200 3200 3201 3201 3201 3201 3201 3200 3201 3200 3200 3200 3198 3197 3196 3196 3195 3194 3194 3194 3194 3194 3194 3194 3194 3194 3194 3194 3195 3196 3196 3196 3197 3197 3197 3197 3198 3199 3199 3199 3199 3200 3200
3175 3174 3173 3173 3172 3172 3171 3171 3171 3170 3170 3169 3169 3168 3168 3169 3169 3170 3171 3172 3173 3174 3174 3175 3176 3176 3177 3179 3180 3182 3183 3184 3186 3187 3188 3190 3192 3193 3195 3196 3197 3198 3198 3199 3200 3200 3200 3201 3201 3201 3201 3201 3201 3202 3200 3200 3199 3198 3197 3196 3196 3195 3195 3194 3194 3194 3194 3194 3194 3194 3194 3195 3195 3195 3196 3196 3197 3198 3198 3198 3199 3199 3200 3200 3200 3200 3200 3201
3175 3174 3173 3172 3171 3171 3171 3170 3170 3170 3169 3168 3167 3167 3167 3167 3168 3169 3170 3170 3171 3172 3173 3174 3175 3175 3176 3178 3179 3180 3181 3183 3184 3186 3188 3189 3191 3193 3194 3195 3196 3197 3198 3199 3199 3200 3200 3201 3201 3201 3202 3202 3202 3202 3201 3200 3199 3198 3197 3197 3196 3195 3195 3195 3195 3195 3195 3195 3195 3195 3195 3195 3195 3196 3196 3197 3197 3198 3198 3199 3199 3200 3200 3201 3201 3201 3201 3201
3174 3173 3172 3171 3171 3170 3170 3169 3169 3169 3168 3167 3166 3166 3166 3166 3166 3167 3168 3169 3170 3171 3172 3173 3174 3174 3175 3176 3177 3179 3180 3182 3183 3185 3187 3189 3190 3192 3193 3195 3196 3197 3198 3198 3199 3200 3200 3201 3201 3202 3202 3201 3202 3202 3201 3200 3199 3199 3198 3198 3197 3196 3196 3196 3195 3195 3195 3195 3196 3196 3196 3197 3196 3196 3197 3197 3197 3198 3199 3199 3199 3200 3200 3201 3201 3202 3201 3202
3173 3172 3172 3171 3170 3169 3169 3168 3168 3168 3167 3166 3165 3165 3165 3165 3165 3165 3166 3167 3168 3170 3171 3172 3172 3173 3174 3175 3176 3178 3179 3181 3183 3184 3186 3188 3189 3191 3192 3194 3196 3197 3198 3198 3199 3200 3200 3201 3201 3202 3202 3202 3202 3201 3201 3200 3200 3200 3199 3198 3198 3198 3197 3196 3195 3195 3195 3196 3197 3197 3197 3198 3197 3197 3197 3197 3197 3198 3199 3199 3199 3200 3200 3200 3201 3201 3201 3201
3173 3172 3171 3170 3169 3168 3168 3167 3167 3166 3166 3165 3165 3164 3164 3164 3164 3164 3165 3166 3167 3168 3169 3170 3171 3172 3174 3174 3175 3177 3178 3180 3182 3183 3185 3187 3188 3190 3191 3193 3195 3196 3197 3198 3199 3200 3200 3201 3202 3202 3202 3202 3202 3201 3202 3201 3200 3200 3199 3198 3198 3198 3197 3196 3195 3195 3195 3196 3197 3197 3198 3199 3197 3198 3198 3197 3198 3198 3199 3199 3199 3199 3200 3200 3200 3201 3201 3201
3172 3171 3170 3169 3168 3167 3167 3166 3166 3165 3164 3164 3164 3163 3163 3163 3163 3163 3164 3165 3166 3167 3168 3169 3170 3171 3173 3173 3174 3176 3177 3178 3180 3182 3184 3185 3187 3188 3190 3192 3194 3195 3197 3198 3199 3200 3201 3201 3202 3202 3202 3202 3203 3203 3202 3201 3200 3200 3199 3198 3198 3198 3198 3197 3196 3196 3196 3196 3197 3197 3198 3199 3198 3198 3198 3198 3198 3198 3199 3199 3199 3199 3199 3200 3200 3200 3200 3200
3172 3170 3169 3168 3167 3166 3165 3165 3165 3164 3163 3163 3163 3162 3162 3162 3162 3163 3163 3164 3165 3165 3166 3168 3169 3170 3172 3172 3173 3174 3175 3176 3178 3180 3182 3184 3185 3187 3189 3191 3193 3195 3196 3198 3199 3200 3201 3202 3202 3203 3203 3203 3204 3203 3201 3200 3200 3200 3200 3199 3198 3198 3198 3198 3197 3196 3196 3196 3197 3197 3198 3199 3199 3198 3198 3198 3198 3198 3199 3199 3199 3199 3199 3199 3200 3200 3200 3200
3171 3170 3168 3167 3167 3165 3164 3164 3163 3163 3162 3162 3162 3161 3161 3161 3162 3162 3162 3163 3163 3164 3166 3166 3168 3170 3171 3171 3172 3172 3173 3175 3177 3179 3181 3183 3185 3186 3188 3190 3192 3194 3196 3198 3199 3200 3201 3202 3203 3204 3204 3204 3204 3203 3201 3201 3202 3201 3200 3199 3199 3198 3198 3198 3198 3197 3196 3196 3197 3198 3198 3199 3199 3199 3199 3198 3199 3199 3199 3199 3199 3199 3199 3199 3199 3199 3200 3200
3171 3169 3168 3166 3166 3165 3163 3162 3162 3162 3161 3161 3160 3160 3160 3161 3161 3161 3161 3162 3162 3164 3165 3165 3166 3169 3169 3170 3170 3171 3172 3174 3176 3179 3180 3182 3184 3185 3187 3190 3192 3194 3196 3198 3199 3200 3201 3203 3203 3204 3204 3204 3204 3203 3203 3202 3202 3201 3200 3200 3199 3198 3198 3198 3197 3197 3197 3197 3198 3199 3199 3200 3199 3199 3199 3199 3199 3199 3199 3199 3199 3198 3198 3198 3198 3199 3199 3199
3170 3169 3167 3166 3165 3164 3162 3161 3161 3161 3160 3160 3159 3159 3159 3160 3160 3160 3160 3161 3162 3162 3162 3163 3165 3166 3167 3168 3169 3170 3172 3174 3176 3178 3179 3181 3184 3185 3187 3189 3192 3194 3196 3199 3200 3200 3201 3203 3203 3204 3203 3203 3203 3203 3202 3202 3201 3201 3200 3200 3199 3198 3199 3198 3198 3197 3197 3198 3199 3199 3200 3200 3199 3199 3199 3198 3198 3198 3199 3198 3198 3198 3198 3198 3198 3198 3198 3198
3169 3168 3166 3165 3163 3163 3162 3160 3160 3160 3159 3159 3158 3158 3159 3159 3159 3159 3159 3160 3160 3161 3161 3162 3164 3165 3166 3167 3168 3169 3171 3174 3176 3177 3178 3180 3183 3185 3187 3189 3192 3194 3196 3198 3199 3199 3201 3202 3202 3202 3202 3202 3202 3202 3202 3201 3201 3201 3200 3199 3198 3198 3199 3199 3198 3198 3198 3199 3200 3199 3199 3200 3200 3199 3198 3198 3198 3198 3198 3198 3198 3198 3198 3198 3198 3198 3198 3197
3168 3167 3166 3164 3162 3162 3161 3159 3159 3159 3158 3158 3158 3158 3158 3158 3158 3158 3159 3159 3159 3160 3161 3162 3163 3164 3165 3166 3167 3169 3170 3173 3175 3176 3177 3179 3182 3185 3187 3188 3191 3194 3195 3196 3198 3199 3200 3202 3201 3201 3201 3201 3202 3202 3202 3201 3201 3201 3200 3198 3198 3199 3199 3199 3199 3198 3198 3199 3200 3199 3200 3201 3200 3199 3198 3198 3198 3198 3198 3198 3198 3198 3198 3198 3197 3197 3197 3197
3168 3166 3165 3163 3162 3161 3160 3158 3158 3158 3158 3157 3157 3157 3157 3157 3157 3158 3158 3158 3159 3159 3160 3161 3163 3163 3165 3166 3167 3168 3170 3173 3175 3176 3177 3179 3182 3184 3185 3187 3191 3193 3194 3195 3198 3200 3200 3200 3200 3200 3200 3202 3202 3202 3202 3202 3201 3200 3200 3198 3197 3199 3199 3199 3199 3199 3199 3199 3200 3200 3200 3200 3199 3198 3199 3198 3198 3198 3198 3197 3197 3197 3197 3197 3197 3197 3197 3197
3167 3166 3164 3162 3161 3160 3159 3158 3157 3157 3157 3156 3156 3156 3156 3156 3156 3157 3157 3158 3158 3158 3159 3160 3161 3163 3164 3165 3167 3168 3170 3173 3175 3176 3176 3179 3181 3183 3185 3187 3190 3191 3193 3195 3197 3199 3199 3198 3198 3199 3200 3201 3202 3203 3203 3202 3201 3200 3200 3199 3198 3200 3200 3200 3199 3198 3198 3198 3199 3199 3198 3200 3201 3199 3199 3198 3198 3198 3198 3197 3197 3197 3197 3197 3197 3196 3196 3196
3166 3165 3163 3161 3160 3159 3158 3157 3156 3156 3156 3156 3156 3155 3155 3155 3156 3156 3157 3158 3158 3158 3159 3160 3161 3163 3164 3165 3166 3168 3170 3172 3173 3174 3176 3178 3181 3183 3184 3185 3188 3191 3193 3194 3196 3198 3198 3196 3198 3200 3200 3201 3202 3203 3203 3202 3201 3200 3200 3200 3200 3201 3201 3200 3199 3198 3197 3198 3199 3197 3194 3196 3201 3201 3199 3198 3198 3198 3198 3197 3197 3197 3197 3197 3196 3196 3196 3196
3164 3164 3162 3161 3160 3158 3157 3156 3156 3156 3155 3155 3155 3155 3155 3155 3156 3156 3156 3157 3158 3158 3159 3160 3161 3163 3164 3165 3166 3167 3171 3172 3172 3173 3175 3178 3180 3182 3184 3185 3187 3190 3191 3192 3195 3197 3196 3195 3198 3199 3200 3202 3202 3203 3202 3202 3201 3200 3200 3200 3200 3200 3201 3200 3200 3198 3197 3197 3198 3197 3194 3194 3198 3200 3199 3198 3198 3198 3197 3197 3197 3197 3197 3197 3196 3196 3196 3196
3163 3163 3161 3160 3159 3158 3156 3156 3155 3155 3155 3155 3155 3154 3155 3155 3155 3156 3156 3156 3157 3157 3158 3159 3161 3162 3163 3165 3166 3169 3172 3171 3171 3173 3175 3177 3179 3181 3184 3185 3186 3187 3188 3191 3194 3194 3194 3195 3197 3199 3200 3202 3202 3202 3201 3201 3201 3200 3200 3200 3200 3201 3201 3200 3200 3198 3197 3198 3197 3197 3197 3194 3196 3199 3199 3199 3199 3198 3198 3197 3197 3197 3197 3197 3196 3196 3196 3196
3162 3161 3160 3159 3158 3157 3156 3155 3155 3155 3154 3154 3154 3154 3154 3155 3155 3156 3155 3154 3154 3157 3158 3159 3160 3161 3163 3165 3166 3168 3170 3170 3172 3173 3173 3176 3178 3180 3184 3185 3186 3187 3187 3190 3193 3193 3194 3196 3197 3199 3201 3201 3202 3201 3200 3201 3201 3200 3200 3200 3200 3200 3200 3200 3200 3198 3198 3197 3195 3197 3197 3195 3196 3199 3200 3200 3200 3199 3198 3198 3197 3197 3197 3196 3196 3196 3196 3196
3161 3160 3159 3158 3157 3156 3155 3155 3154 3154 3154 3154 3154 3154 3154 3155 3155 3156 3155 3153 3154 3157 3158 3159 3160 3161 3163 3165 3166 3168 3169 3171 3172 3172 3173 3175 3177 3179 3182 3183 3185 3186 3186 3189 3192 3192 3192 3194 3195 3198 3200 3201 3201 3201 3200 3201 3201 3200 3200 3200 3200 3199 3199 3200 3199 3199 3198 3196 3195 3197 3197 3195 3196 3200 3200 3200 3201 3200 3199 3198 3197 3197 3197 3196 3196 3196 3196 3196
3160 3160 3159 3158 3157 3156 3155 3154 3154 3154 3154 3154 3154 3154 3154 3155 3155 3155 3153 3153 3155 3157 3157 3159 3160 3161 3163 3165 3167 3168 3170 3171 3171 3171 3173 3175 3176 3179 3180 3181 3183 3185 3186 3188 3191 3191 3191 3192 3194 3196 3198 3200 3200 3200 3200 3200 3200 3200 3200 3200 3200 3199 3199 3199 3199 3199 3197 3195 3196 3197 3197 3195 3195 3199 3202 3201 3200 3200 3199 3198 3197 3197 3197 3196 3196 3196 3197 3197
3159 3159 3158 3157 3156 3155 3154 3154 3154 3154 3154 3154 3154 3154 3154 3155 3155 3153 3151 3153 3156 3156 3158 3159 3160 3161 3164 3166 3168 3169 3170 3171 3171 3172 3173 3174 3176 3178 3179 3181 3183 3186 3188 3188 3189 3191 3191 3193 3195 3196 3197 3198 3199 3200 3200 3200 3200 3200 3200 3200 3199 3197 3197 3197 3197 3197 3194 3194 3197 3197 3198 3196 3194 3199 3202 3200 3199 3199 3199 3199 3197 3197 3197 3197 3197 3197 3197 3197
3158 3158 3157 3156 3156 3155 3154 3153 3153 3153 3154 3154 3154 3154 3154 3155 3155 3153 3152 3154 3156 3156 3158 3159 3160 3162 3164 3166 3168 3169 3170 3170 3171 3172 3174 3175 3177 3178 3179 3181 3182 3184 3186 3187 3188 3190 3191 3193 3195 3195 3196 3198 3199 3200 3200 3200 3200 3200 3200 3200 3198 3195 3195 3195 3195 3195 3193 3194 3198 3198 3197 3196 3196 3201 3201 3199 3199 3199 3199 3199 3198 3197 3197 3197 3197 3197 3197 3197
3157 3157 3156 3156 3155 3154 3154 3153 3153 3153 3153 3154 3154 3154 3155 3154 3153 3153 3154 3155 3155 3156 3158 3159 3160 3162 3164 3166 3167 3168 3169 3170 3170 3172 3174 3175 3176 3178 3178 3179 3181 3182 3183 3184 3187 3188 3190 3193 3194 3195 3196 3197 3198 3199 3199 3199 3199 3199 3199 3199 3198 3195 3194 3195 3195 3194 3194 3195 3198 3198 3196 3195 3197 3201 3201 3199 3200 3199 3199 3199 3198 3198 3197 3197 3197 3197 3198 3198
3156 3156 3156 3155 3154 3154 3153 3153 3153 3153 3153 3154 3154 3154 3155 3154 3152 3153 3155 3155 3155 3155 3157 3158 3160 3162 3164 3166 3167 3167 3169 3169 3170 3171 3173 3174 3176 3177 3177 3178 3179 3181 3182 3183 3185 3186 3187 3190 3192 3194 3195 3195 3197 3198 3197 3198 3198 3199 3199 3199 3198 3195 3194 3195 3193 3193 3193 3194 3196 3197 3195 3195 3197 3199 3200 3199 3200 3199 3199 3199 3198 3198 3198 3198 3198 3198 3198 3198
3156 3155 3155 3154 3154 3153 3153 3153 3153 3153 3154 3154 3154 3155 3155 3154 3153 3154 3155 3155 3155 3156 3157 3158 3160 3162 3164 3165 3166 3167 3168 3168 3169 3171 3172 3173 3174 3175 3177 3177 3178 3180 3182 3183 3184 3185 3186 3187 3189 3192 3193 3195 3196 3197 3197 3198 3198 3198 3199 3199 3197 3196 3196 3195 3194 3195 3195 3193 3194 3196 3196 3197 3198 3199 3199 3199 3200 3200 3200 3199 3199 3199 3199 3198 3198 3198 3198 3198
3155 3155 3154 3154 3153 3153 3153 3153 3153 3153 3154 3154 3155 3155 3155 3153 3153 3154 3154 3154 3155 3156 3157 3158 3160 3162 3163 3164 3165 3166 3167 3167 3169 3170 3171 3173 3174 3174 3176 3177 3177 3179 3181 3182 3183 3185 3186 3186 3188 3191 3193 3194 3195 3196 3197 3198 3197 3197 3198 3197 3196 3197 3198 3197 3195 3197 3196 3192 3194 3196 3195 3196 3199 3201 3200 3199 3199 3200 3200 3200 3199 3199 3199 3199 3199 3199 3199 3199
3154 3154 3154 3153 3153 3152 3152 3153 3153 3153 3154 3154 3155 3155 3154 3153 3153 3153 3153 3153 3154 3156 3157 3158 3160 3161 3162 3163 3164 3166 3167 3167 3168 3169 3170 3171 3172 3173 3175 3176 3177 3178 3181 3182 3183 3184 3185 3185 3188 3190 3192 3193 3194 3195 3196 3197 3197 3198 3196 3195 3197 3198 3199 3198 3195 3195 3194 3192 3193 3195 3194 3195 3197 3200 3202 3202 3201 3200 3200 3200 3200 3200 3200 3200 3200 3199 3199 3199
3153 3153 3153 3153 3152 3152 3152 3153 3153 3153 3154 3154 3155 3155 3154 3153 3153 3152 3152 3153 3154 3155 3157 3158 3159 3160 3161 3162 3163 3165 3166 3166 3167 3168 3169 3170 3171 3171 3174 3176 3177 3178 3180 3181 3182 3184 3183 3184 3187 3190 3191 3192 3194 3195 3196 3196 3197 3197 3196 3196 3198 3197 3197 3198 3196 3194 3194 3192 3191 3193 3194 3196 3197 3198 3201 3203 3202 3201 3201 3201 3201 3200 3200 3200 3200 3200 3199 3199
3153 3152 3152 3152 3151 3152 3152 3152 3153 3153 3154 3155 3156 3155 3154 3153 3152 3152 3152 3153 3154 3155 3157 3158 3158 3159 3161 3161 3162 3164 3166 3165 3166 3167 3168 3169 3170 3171 3173 3176 3177 3178 3180 3181 3182 3183 3183 3183 3185 3188 3190 3192 3194 3195 3195 3195 3196 3197 3197 3197 3198 3197 3196 3197 3196 3194 3193 3191 3192 3194 3195 3196 3198 3199 3200 3201 3201 3201 3201 3201 3201 3201 3201 3201 3201 3200 3200 3199
3152 3152 3152 3151 3151 3151 3152 3152 3152 3153 3154 3155 3155 3155 3154 3153 3152 3152 3152 3153 3154 3155 3157 3158 3159 3159 3160 3161 3162 3163 3165 3165 3166 3167 3167 3168 3170 3171 3173 3175 3177 3178 3179 3180 3182 3183 3184 3184 3184 3187 3190 3191 3192 3193 3193 3193 3194 3196 3196 3196 3197 3197 3197 3197 3196 3196 3194 3192 3193 3195 3196 3197 3199 3200 3200 3201 3201 3201 3201 3201 3201 3201 3202 3201 3201 3200 3200 3200
3151 3151 3151 3151 3151 3151 3151 3152 3152 3153 3154 3155 3155 3154 3154 3153 3153 3153 3153 3153 3154 3155 3156 3157 3158 3159 3160 3161 3162 3163 3164 3165 3165 3166 3167 3168 3169 3170 3172 3174 3176 3178 3179 3180 3182 3183 3184 3184 3184 3186 3188 3189 3189 3190 3191 3192 3193 3194 3194 3194 3195 3196 3197 3195 3194 3195 3196 3194 3194 3195 3196 3198 3199 3199 3200 3200 3200 3201 3201 3201 3201 3202 3202 3202 3201 3201 3201 3201
3151 3150 3150 3150 3150 3150 3151 3152 3152 3153 3154 3155 3155 3154 3154 3153 3153 3153 3154 3154 3154 3155 3156 3156 3157 3158 3159 3160 3161 3162 3163 3164 3165 3166 3167 3168 3169 3170 3171 3173 3175 3177 3179 3181 3182 3183 3184 3185 3185 3185 3186 3187 3187 3189 3191 3191 3193 3194 3193 3194 3194 3194 3195 3193 3191 3193 3195 3195 3195 3195 3195 3198 3199 3199 3200 3200 3200 3201 3202 3201 3201 3202 3202 3202 3202 3202 3201 3201
3149 3149 3149 3149 3149 3150 3151 3152 3153 3153 3153 3154 3154 3154 3154 3154 3154 3154 3154 3154 3155 3155 3156 3156 3156 3157 3158 3159 3160 3161 3162 3163 3164 3166 3167 3168 3169 3170 3171 3172 3175 3177 3180 3182 3182 3183 3183 3184 3185 3186 3187 3188 3188 3189 3190 3191 3192 3193 3193 3193 3194 3194 3194 3192 3191 3193 3194 3194 3195 3195 3195 3198 3200 3199 3200 3200 3200 3201 3201 3201 3201 3202 3202 3202 3202 3202 3202 3202
3148 3148 3148 3149 3149 3149 3150 3152 3153 3153 3153 3154 3154 3154 3154 3154 3154 3154 3154 3154 3155 3155 3155 3156 3156 3156 3157 3157 3158 3160 3162 3162 3164 3165 3166 3168 3169 3169 3170 3172 3174 3177 3179 3181 3182 3182 3183 3184 3184 3185 3186 3187 3188 3189 3190 3191 3191 3192 3192 3193 3193 3193 3194 3193 3193 3194 3193 3193 3195 3193 3194 3199 3200 3200 3200 3200 3200 3201 3200 3200 3201 3202 3202 3203 3203 3203 3202 3202
3147 3147 3147 3148 3148 3149 3149 3150 3151 3152 3152 3153 3154 3154 3154 3155 3155 3155 3155 3154 3155 3155 3155 3155 3155 3155 3155 3156 3157 3159 3160 3161 3163 3165 3166 3167 3168 3169 3170 3172 3174 3177 3178 3179 3181 3182 3183 3184 3184 3184 3183 3183 3185 3186 3188 3190 3191 3191 3191 3192 3192 3193 3194 3193 3193 3193 3192 3193 3196 3195 3195 3199 3200 3200 3200 3200 3200 3201 3199 3199 3200 3202 3203 3203 3203 3203 3203 3202
3146 3147 3147 3147 3147 3148 3148 3149 3150 3151 3152 3153 3154 3154 3154 3155 3155 3155 3155 3155 3155 3155 3155 3155 3154 3154 3154 3155 3156 3158 3160 3161 3162 3164 3165 3167 3168 3168 3170 3172 3174 3176 3177 3179 3180 3182 3183 3184 3184 3184 3184 3184 3185 3186 3188 3189 3190 3190 3191 3191 3191 3192 3193 3193 3192 3191 3191 3193 3196 3196 3197 3199 3201 3200 3200 3200 3200 3201 3200 3199 3200 3202 3203 3203 3203 3203 3202 3202
3145 3145 3146 3146 3147 3147 3148 3149 3149 3150 3151 3152 3153 3153 3154 3155 3155 3155 3155 3155 3155 3155 3155 3155 3154 3154 3154 3155 3157 3158 3159 3161 3162 3163 3165 3166 3167 3168 3170 3172 3174 3175 3177 3179 3180 3181 3183 3184 3184 3185 3185 3185 3186 3187 3188 3189 3190 3190 3191 3191 3191 3191 3192 3193 3192 3192 3192 3193 3195 3197 3198 3199 3201 3201 3199 3199 3200 3200 3200 3199 3200 3202 3203 3202 3202 3202 3202 3202
3144 3144 3145 3145 3146 3147 3147 3148 3148 3149 3150 3151 3152 3153 3154 3154 3155 3155 3155 3155 3155 3155 3156 3155 3155 3154 3154 3155 3157 3158 3159 3161 3162 3163 3164 3166 3167 3168 3170 3172 3174 3175 3177 3179 3180 3181 3183 3184 3184 3185 3185 3186 3187 3188 3188 3189 3190 3190 3190 3191 3191 3192 3192 3193 3193 3193 3194 3194 3195 3196 3197 3198 3200 3199 3198 3198 3199 3199 3199 3199 3200 3201 3202 3201 3201 3201 3201 3201
3143 3143 3143 3144 3145 3145 3146 3147 3148 3149 3150 3151 3152 3153 3153 3154 3155 3155 3155 3155 3156 3156 3156 3156 3155 3155 3155 3156 3157 3158 3159 3160 3162 3162 3164 3165 3167 3169 3170 3172 3174 3176 3177 3178 3179 3181 3183 3184 3184 3185 3186 3186 3187 3188 3189 3190 3190 3190 3190 3190 3191 3192 3192 3192 3193 3193 3194 3195 3195 3195 3196 3197 3197 3197 3196 3197 3199 3199 3199 3200 3200 3201 3201 3200 3201 3201 3201 3201
3141 3142 3142 3143 3144 3144 3145 3146 3147 3148 3149 3150 3151 3152 3153 3153 3154 3155 3155 3155 3156 3156 3156 3156 3155 3156 3156 3156 3157 3158 3158 3159 3161 3162 3163 3165 3167 3169 3171 3172 3174 3175 3177 3179 3179 3180 3183 3184 3184 3186 3187 3187 3187 3188 3189 3190 3191 3191 3190 3191 3191 3192 3192 3192 3193 3193 3194 3195 3195 3195 3195 3195 3195 3196 3196 3197 3198 3199 3199 3200 3200 3200 3200 3200 3201 3201 3201 3201
3139 3140 3141 3142 3143 3143 3145 3146 3147 3148 3149 3150 3150 3151 3152 3153 3154 3154 3155 3155 3156 3156 3156 3156 3156 3157 3157 3157 3157 3158 3158 3159 3160 3161 3163 3165 3167 3169 3171 3172 3174 3175 3177 3178 3179 3181 3182 3183 3184 3185 3187 3188 3188 3189 3190 3191 3191 3191 3191 3191 3192 3192 3192 3193 3193 3193 3194 3194 3194 3195 3196 3195 3194 3195 3196 3197 3198 3199 3199 3199 3199 3199 3200 3200 3201 3201 3201 3201
3138 3139 3140 3140 3141 3142 3144 3145 3146 3147 3148 3149 3149 3150 3151 3152 3153 3154 3155 3156 3156 3156 3157 3157 3156 3158 3159 3158 3158 3159 3159 3160 3161 3162 3164 3166 3167 3169 3171 3172 3174 3176 3177 3178 3180 3181 3182 3183 3184 3185 3186 3188 3189 3189 3190 3190 3190 3191 3192 3192 3192 3192 3192 3193 3193 3193 3193 3194 3194 3195 3195 3194 3194 3194 3195 3196 3198 3198 3198 3199 3199 3199 3200 3201 3201 3201 3201 3201